Regional Weather Roundup
Issued by NWS Sterling, VA

Home | Current Version | Previous Version | Graphics & Text | Print | Product List | Glossary On
Versions: 1 2 3 4 5 6 7 8 9 10 11 12 13 14 15 16 17 18 19 20 21 22 23 24 25 26 27 28 29 30 31 32 33 34 35 36 37 38 39 40 41 42 43 44 45 46 47 48 49 50
000
ASUS41 KLWX 180910
RWRLWX

REGIONAL WEATHER ROUNDUP
NATIONAL WEATHER SERVICE BALTIMORE MD/WASHINGTON DC
500 AM EDT THU SEP 18 2014

Note: "FAIR" indicates few or no clouds below 12,000 feet
with no significant weather and/or obstructions to visibility.
 TC=TEMPERATURE CELSIUS

 * =Non NWS site. Station does not report precipitation (e.g. rain,
    snow, etc.), thunder, or fog.

DCZ001-MDZ009-015-VAZ040>042-051-053>054-181000-
WASHINGTON METRO

CITY           SKY/WX    TMP DP  RH WIND       PRES   REMARKS
WASHINGTON NAT CLOUDY    65  53  65 SW3       29.98S
DULLES         CLOUDY    54  52  93 CALM      29.98R
ANDREWS AFB    MOCLDY    58  55  89 CALM      29.97S
QUANTICO       MOCLDY    60  56  86 NW7       29.98S
COLLEGE PARK*  CLOUDY    59  57  94 CALM      29.97S
LEESBURG*      PTCLDY    55  55 100 CALM      29.98S
MANASSAS*      CLOUDY    55  54  94 CALM      29.98S
GAITHERSBURG*  MOCLDY    55  52  88 CALM      30.01S

$$

MDZ006>007-011-014-181000-
BALTIMORE METRO

CITY           SKY/WX    TMP DP  RH WIND       PRES   REMARKS
BWI AIRPORT    MOCLDY    57  53  86 CALM      29.97R
MD SCIENCE CTR   N/A     63  53  70 MISG      29.98R
MARTIN STATE   MOCLDY    57  55  94 CALM      29.99S
ANNAPOLIS      CLOUDY    64  58  80 CALM      29.97R
FORT MEADE*    CLOUDY    54  54 100 CALM      30.00R

$$

MDZ012-015-019>023-181000-
MARYLAND EASTERN SHORE

CITY           SKY/WX    TMP DP  RH WIND       PRES   REMARKS
OCEAN CITY     CLEAR     51  48  89 NW3       29.97R
SALISBURY      CLEAR     53  48  83 CALM      29.97S
BAY BRIDGE AP*   N/A     63  54  72 CALM      29.97S
CAMBRIDGE*     CLEAR     54  50  87 CALM      29.97R
EASTON*        CLOUDY    58  58 100 CALM      30.01R

$$

MDZ017>025-181000-
SOUTHERN MARYLAND

CITY           SKY/WX    TMP DP  RH WIND       PRES   REMARKS
PATUXENT RIVER CLOUDY    59  56  89 SW3       29.97R
ST INIGOES       N/A     57  53  86 CALM      29.97R
LEONARDTOWN*   CLOUDY    55  54  94 CALM      29.99R

$$

MDZ003>005-181000-
NORTH CENTRAL MARYLAND

CITY           SKY/WX    TMP DP  RH WIND       PRES   REMARKS
FREDERICK*     CLOUDY    54  54 100 CALM      30.01R
HAGERSTOWN APT PTCLDY    52  48  86 NW5       29.98R
WESTMINSTER*   CLOUDY    55  52  88 CALM      29.98S

$$

MDZ501>502-181000-
WESTERN MARYLAND

CITY           SKY/WX    TMP DP  RH WIND       PRES   REMARKS
OAKLAND*       PTCLDY    52  52 100 CALM      30.02S
CUMBERLAND*    CLEAR     52  48  87 CALM      30.03R

$$

VAZ025>031-181000-
SHENANDOAH VALLEY

CITY           SKY/WX    TMP DP  RH WIND       PRES   REMARKS
WINCHESTER*    PTCLDY    50  50 100 CALM      29.97S FOG
STAUNTON*      CLEAR     51  48  92 CALM      30.01R FOG

$$

WVZ021-048>050-054>055-181000-
EASTERN WEST VIRGINIA PANHANDLE

CITY           SKY/WX    TMP DP  RH WIND       PRES   REMARKS
MARTINSBURG    PTCLDY    54  48  80 CALM      29.98R
PETERSBURG*    FOG       49  48  93 CALM      30.00S VSB 3/4

$$

VAZ036>039-050-181000-
CENTRAL FOOTHILLS

CITY           SKY/WX    TMP DP  RH WIND       PRES   REMARKS
CHARLOTTESVILL PTCLDY    56  53  90 CALM      29.98R
ORANGE*        CLEAR     52  50  93 CALM      29.99S FOG

$$

VAZ055>057-181000-
NORTH AND CENTRAL PIEDMONT

CITY           SKY/WX    TMP DP  RH WIND       PRES   REMARKS
FREDERICKSBRG* CLOUDY    58  58  99 CALM      29.97S
STAFFORD*      MOCLDY    55  55 100 CALM      30.02R

$$

NCZ024-NYZ072-PAZ021-071-VAZ022-071-181000-
OTHER REGIONAL OBSERVATIONS

CITY           SKY/WX    TMP DP  RH WIND       PRES   REMARKS
NEW YORK CITY  CLEAR     60  51  72 CALM      29.99S
PHILADELPHIA   CLEAR     58  51  78 NW5       29.98R
PITTSBURGH     MOCLDY    53  50  89 N5        30.01R
ROANOKE        MOCLDY    58  55  90 NE3       30.01S
RICHMOND       PTCLDY    58  56  93 CALM      29.97R
RALEIGH        PTCLDY    61  58  90 CALM      29.96R

$$

ANZ530>537-181000-
MARINE OBSERVATIONS

STATION/POSITION TIME  TEMP    WIND        PRES
                       AIR SEA DIR/SP/G
                 (UTC) (F)     (DEG/KT/KT) (MB)
THOMAS PT LIGHT  0900   67 74  240/  8/  8 1015.9R
BALT KEY BRIDGE  0900   64      10/  3/  4 1014.7R
COVE POINT       0900   67     270/  5/  6 1014.6R
LEWISETTA        0900   63 73  260/  4/  5 1014.5R
SOLOMONS ISLAND  0900      76                N/A
PINEY POINT      0900          260/  3/  4   N/A

$$



USA.gov is the U.S. government's official web portal to all federal, state and local government web resources and services.